This is the latest recevied weather packets stored in our database for station/object KC3AWA. If no packets are shown the sender has not sent any weather packets the latest 10 day(s).
| Time | Temp. | Humidity | Pressure | Rain* | Wind** | Luminosity | Snow |
|---|---|---|---|---|---|---|---|
| 1778027889 | 13.33° C | 95% | 1008.9 hPa | 0 mm | - | 0 W/m² | - |
| 1778027587 | 13.33° C | 95% | 1008.5 hPa | 0 mm | - | 0 W/m² | - |
| 1778027282 | 13.33° C | 95% | 1008.5 hPa | 1.78 mm | - | 0 W/m² | - |
| 1778026979 | 13.33° C | 95% | 1008.9 hPa | 1.78 mm | - | 1 W/m² | - |
| 1778026675 | 13.33° C | 95% | 1008.5 hPa | 0 mm | - | 2 W/m² | - |
| 1778026373 | 13.89° C | 94% | 1008.8 hPa | 0 mm | - | 3 W/m² | - |
| 1778026069 | 13.89° C | 94% | 1009 hPa | 0 mm | - | 3 W/m² | - |
| 1778025767 | 13.89° C | 94% | 1009 hPa | 0 mm | - | 4 W/m² | - |
| 1778025463 | 13.89° C | 93% | 1008.8 hPa | 0 mm | - | 8 W/m² | - |
| 1778025161 | 13.89° C | 93% | 1008.9 hPa | 0 mm | - | 9 W/m² | - |
| 1778024858 | 13.89° C | 92% | 1009 hPa | 0 mm | - | 7 W/m² | - |
| 1778024555 | 13.89° C | 92% | 1009.2 hPa | 0 mm | - | 5 W/m² | - |
| 1778024252 | 13.89° C | 92% | 1009.4 hPa | 0 mm | - | 6 W/m² | - |
| 1778023950 | 13.89° C | 91% | 1009.3 hPa | 0 mm | - | 10 W/m² | - |
| 1778023647 | 13.89° C | 91% | 1009.2 hPa | 0 mm | - | 20 W/m² | - |
| 1778023344 | 13.89° C | 91% | 1009.1 hPa | 0 mm | - | 16 W/m² | - |
| 1778023041 | 14.44° C | 91% | 1009.1 hPa | 0 mm | - | 13 W/m² | - |
| 1778022740 | 14.44° C | 91% | 1008.9 hPa | 0 mm | - | 5 W/m² | - |
| 1778022437 | 14.44° C | 91% | 1009 hPa | 0 mm | - | 12 W/m² | - |
| 1778022134 | 14.44° C | 91% | 1009 hPa | 0 mm | - | 27 W/m² | - |
| 1778021830 | 14.44° C | 90% | 1008.9 hPa | 0 mm | - | 45 W/m² | - |
| 1778021527 | 14.44° C | 90% | 1009 hPa | 0 mm | - | 25 W/m² | - |
| 1778021223 | 14.44° C | 90% | 1009 hPa | 0 mm | - | 37 W/m² | - |
| 1778020921 | 14.44° C | 90% | 1008.8 hPa | 0 mm | - | 76 W/m² | - |
| 1778020618 | 14.44° C | 90% | 1009.2 hPa | 0 mm | - | 85 W/m² | - |
* Rain latest hour (hover to see other rain measurements)
** Current wind speed in m/s (hover to see current wind gust speed)